Location: Newark
(53.4333°N, 36.0000°E)
Time: 15:06:09
(UTC+00:00)

ISS - Pass Details

Date: 24 September 2019
Orbit: 411 x 421 km, 51.6° (Epoch: 17 October)

Event Time Altitude Azimuth Distance (km) Brightness Sun altitude
Rises 16:13:52 0° 225° (SW) 2,337 0.6 -7.2°
Reaches altitude 10° 16:16:08 10° 213° (SSW) 1,477 -0.7 -7.6°
Maximum altitude 16:18:59 27° 153° (SSE) 826 -2.6 -8.0°
Enters shadow 16:21:35 12° 96° (E) 1,385 -1.8 -8.4°
